Location: Antioch Church
(34.9543°N, 88.5145°W)
Time: 02:52:44
(UTC+00:00)

Cosmos 1703 Rocket - Pass Details

Date: 11 December 2019
Orbit: 604 x 634 km, 82.5° (Epoch: 19 January)

Event Time Altitude Azimuth Distance (km) Brightness Sun altitude
Exits shadow 11:09:21 26° 347° (NNW) 1,237 4.8 -20.3°
Maximum altitude 11:11:49 77° 265° (W) 640 3.4 -19.9°
Drops below altitude 10° 11:16:10 10° 180° (S) 1,969 6.3 -19.0°
Sets 11:18:22 0° 178° (S) 2,865 7.2 -18.6°
